Location: Besch
(47.1730°N, 9.5193°E)
Time: 23:07:52
(UTC+00:00)

Daily predictions for brighter satellites

Satellite Brightness Start Highest point End
(mag) Time Altitude Azimuth Time Altitude Azimuth Time Altitude Azimuth
Meteor 1-10 Rocket 4.2 19:32:18 10° S 19:37:51 84° E 19:43:31 10° NNE
Cosmos 1933 Rocket 4.0 19:36:33 10° N 19:40:53 47° ENE 19:45:10 10° SSE
EXPRESS MD2 3.9 19:35:25 10° WNW 19:42:26 71° SSW 19:45:57 10° SE
Cosmos 1666 Rocket 4.5 19:38:40 10° NNW 19:42:57 51° W 19:47:14 10° S
Cosmos 1515 3.8 19:40:50 10° S 19:44:32 57° E 19:48:13 10° NNE
CZ-4B R/B 1.3 19:41:57 10° NNE 19:45:07 60° ESE 19:48:13 10° S
SPOT 1/Viking Rocket 3.6 19:41:04 10° SSE 19:46:12 69° ENE 19:51:21 10° N
Helios 1A Rocket 4.2 19:43:25 10° ESE 19:46:44 25° ENE 19:50:04 10° N
Resurs 1-3 4.5 19:42:47 10° S 19:47:02 50° W 19:51:20 10° NNW
Meteor 1-27 Rocket 3.9 19:41:32 10° S 19:47:14 65° E 19:53:05 10° NNE
Cosmos 1633 Rocket 3.9 19:46:55 10° NNW 19:51:10 50° W 19:55:23 10° S
Cosmos 2034 Rocket 4.5 19:46:19 10° SSE 19:52:13 44° E 19:58:11 10° NNE
Cosmos 2219 3.6 19:46:52 10° NNW 19:52:26 62° WSW 19:57:57 10° S
SJ 16-02 2.2 19:50:15 10° SSE 19:54:02 29° E 19:57:50 10° NE
Cosmos 1315 Rocket 4.4 19:50:39 10° NNW 19:54:22 35° W 19:58:03 10° SSW
Cosmos 1340 2.6 19:51:10 10° S 19:54:51 65° E 19:58:35 10° NNE
Cosmos 2082 3.7 19:53:38 10° NNW 19:59:19 82° ENE 20:04:56 10° SSE
Meteor 1-11 Rocket 4.1 19:54:19 10° NNW 20:00:18 72° W 20:06:12 10° S
Cosmos 482 Debris 4.0 19:58:58 10° WNW 20:01:34 61° NNE 20:05:31 10° ESE
Cosmos 2263 Rocket 2.7 19:56:59 10° NNW 20:02:25 47° NE 20:07:29 11° SE
Cosmos 1470 Rocket 3.9 19:58:17 10° NNW 20:02:35 65° W 20:06:51 10° S
Cosmos 1743 2.7 20:02:02 10° N 20:05:50 81° W 20:09:36 10° S
Ariane Rocket 3.1 20:01:00 10° SSE 20:06:04 86° WSW 20:11:12 10° NNW
SPOT 5 3.6 20:06:30 11° SE 20:11:13 44° ENE 20:16:04 10° N
BREEZE-M DEB (TANK) 2.4 20:08:57 10° W 20:11:40 55° N 20:13:48 10° ENE
IRAS Rocket 4.3 20:06:09 10° NNE 20:11:49 89° ESE 20:17:27 10° SSW
Terra 2.9 20:09:04 12° SE 20:12:54 30° ENE 20:17:03 10° N
Resurs 01 Rocket 2.3 20:10:35 10° S 20:14:52 52° W 20:19:12 10° NNW
Aureole 1 Rocket 2.8 20:13:50 10° SSW 20:16:58 57° WNW 20:19:55 10° NNE
Cosmos 1346 Rocket 4.5 20:15:00 13° ESE 20:16:58 18° E 20:19:47 10° NE
Cosmos 1515 Rocket 4.0 20:13:17 10° SSW 20:17:38 66° WNW 20:22:02 10° N
Cosmos 1809 Rocket 4.5 20:12:23 10° N 20:18:33 80° E 20:24:43 10° SSE
Cosmos 2227 Rocket 3.6 20:15:10 10° NW 20:20:14 34° WSW 20:25:16 10° SSW
Cosmos 921 Rocket 3.2 20:17:03 10° NNW 20:21:35 80° WSW 20:25:38 13° SSE
Cosmos 783 Rocket 4.5 20:22:03 10° NNW 20:27:17 83° ENE 20:31:34 15° SSE
Cosmos 1980 Rocket 2.2 20:24:11 10° SSW 20:29:49 87° ESE 20:35:32 10° NNE
CARTOSAT-1 3.7 20:26:14 12° S 20:30:17 76° WSW 20:34:38 10° NNW
Cosmos 1869 Rocket 3.6 20:26:27 10° N 20:30:57 74° E 20:34:33 16° SSE
SL-24 R/B - RUBIN 2 4.1 20:26:57 10° NNW 20:31:14 49° NE 20:34:40 16° ESE
Cosmos 2228 Rocket 3.2 20:29:01 11° S 20:33:16 60° E 20:37:45 10° NNE
Cosmos 1464 Rocket 4.3 20:28:15 10° SSW 20:34:25 67° W 20:40:34 10° N
Cosmos 1378 3.5 20:34:31 19° SSE 20:36:50 44° E 20:40:20 10° NNE
Cosmos 2344 3.5 20:30:40 10° SW 20:38:10 90° WNW 20:45:57 10° NE
Cosmos 2322 Rocket 3.5 20:36:17 17° SE 20:38:38 22° E 20:42:48 10° NE
Cosmos 1777 Rocket 4.0 20:33:56 10° S 20:39:04 62° ESE 20:44:14 10° NNE
ISS -3.8 20:35:59 10° WNW 20:39:21 88° NE 20:41:27 21° ESE
Cosmos 2369 4.0 20:33:55 10° SW 20:39:33 71° WNW 20:45:14 10° NNE
Spot 2 Rocket 3.5 20:35:42 16° SSE 20:39:45 79° ENE 20:44:49 10° NNW
Cosmos 1354 Rocket 4.1 20:35:01 10° SSW 20:40:17 84° WNW 20:45:39 10° NNE
SPOT 3 Rocket 3.8 20:36:10 12° S 20:40:58 67° WSW 20:46:08 10° NNW
Cosmos 773 Rocket 4.1 20:36:03 10° NNW 20:41:18 77° WSW 20:45:19 17° SSE
Cosmos 1844 Rocket 4.2 20:37:06 10° N 20:41:43 25° NE 20:46:16 10° ESE
ATLAS 2AS CENTAUR R/B 2.9 20:35:04 10° SSW 20:42:51 74° SE 20:50:23 10° NE
Okean 1 3.5 20:40:36 10° SSW 20:44:35 74° W 20:48:38 10° N
Meteor 2-4 Rocket 4.0 20:40:22 15° SSE 20:45:04 52° E 20:50:32 10° NNE
Meteor 1-19 Rocket 4.2 20:41:17 10° SSW 20:46:43 85° WNW 20:52:09 10° N
Cosmos 1092 Rocket 4.0 20:41:04 10° N 20:47:17 77° E 20:52:05 17° SSE
Nadezhda 4 Rocket 4.4 20:41:53 10° NNW 20:48:02 64° W 20:54:06 10° S
RESURS DK-1 2.2 20:44:33 10° SSW 20:48:40 83° ESE 20:52:48 10° NNE
Cosmos 1697 Rocket 4.2 20:43:40 10° WSW 20:48:57 39° NW 20:54:16 10° NNE
SL-4 R/B 4.0 20:46:37 10° W 20:49:54 20° SW 20:52:09 14° S
USA 267 4.5 20:47:49 10° ENE 20:53:48 40° N 20:59:47 10° WNW
Cosmos 1634 Rocket 4.0 20:49:58 15° S 20:55:05 63° E 21:01:11 10° NNE
ARIANE 5 R/B 2.8 20:53:39 23° SE 20:56:19 60° ENE 21:00:46 10° N
Cosmos 1707 Rocket 3.7 20:54:13 21° SSE 20:56:58 56° E 21:01:18 10° NNE
ATLAS CENTAUR R/B 3.7 20:53:23 10° NNW 20:57:14 22° NNE 21:00:58 10° E
Cosmos 44 Rocket 3.1 20:53:58 10° NW 20:58:43 90° NNE 21:01:28 25° SE
Cosmos 2227 4.2 20:58:31 10° NNW 21:04:19 89° ENE 21:07:59 24° SSE
Cosmos 1733 4.5 21:01:58 10° NNE 21:05:15 27° ENE 21:06:32 22° ESE
Cosmos 158 Rocket 4.0 21:01:00 10° NNW 21:06:08 80° WSW 21:09:24 24° SSE
ATLAS 3B R/B 3.0 21:00:32 10° NW 21:07:54 75° NE 21:13:24 21° SE
NOSS 2-1 (E) 3.0 21:08:10 36° SSE 21:08:58 45° SE 21:12:04 10° NE
Cosmos 1975 3.0 21:07:16 10° NNW 21:11:20 72° W 21:13:33 26° S
Cosmos 2026 Rocket 4.0 21:06:20 10° N 21:12:32 82° W 21:17:00 20° S
USA 81 4.0 21:09:01 21° S 21:12:37 78° E 21:17:54 10° N
ERS-1 Rocket 3.3 21:12:32 20° S 21:15:58 60° W 21:20:59 10° NNW
SL-16 R/B 2.3 21:13:28 18° S 21:17:36 59° ESE 21:23:11 10° NNE
Meteor 1-4 Rocket 3.2 21:15:25 10° N 21:18:42 39° ENE 21:19:36 32° ESE
CZ-4C R/B 4.2 21:13:24 10° NNW 21:19:26 33° NNE 21:26:29 10° E
Cosmos 1538 Rocket 4.0 21:16:15 10° NNW 21:21:32 83° WSW 21:24:18 28° SSE
Helios 1A Rocket 4.3 21:19:01 15° SSW 21:21:43 31° W 21:25:18 10° NNW
CZ-2C R/B 4.1 21:18:56 10° N 21:23:41 67° WNW 21:27:47 14° SSW
GENESIS II 4.0 21:20:47 14° SW 21:24:03 84° SE 21:27:59 10° NE
Cosmos 1733 Rocket 3.0 21:21:10 10° N 21:25:39 87° WSW 21:27:44 31° S
Meteor 2-8 Rocket 4.5 21:25:01 17° SSW 21:29:51 82° W 21:35:59 10° N
Geosat 4.0 21:28:35 29° SE 21:31:10 78° ENE 21:36:12 10° NNW
OE (NEXTSAT) 4.0 21:28:03 10° W 21:31:20 73° S 21:32:08 47° ESE
SAR-Lupe-4 3.4 21:28:42 10° NNE 21:32:19 74° ESE 21:33:21 43° S
SJ 16-02 3.1 21:28:38 10° WSW 21:32:31 31° WNW 21:36:27 10° N
Cosmos 1356 3.5 21:35:10 47° ESE 21:35:22 48° E 21:38:35 10° NNE
Cosmos 1908 Rocket 4.1 21:33:03 10° N 21:37:14 45° ENE 21:38:37 33° ESE
Cosmos 923 Rocket 4.2 21:34:21 10° NNW 21:39:41 66° ENE 21:42:10 32° SE
Cosmos 1862 Rocket 3.6 21:37:31 29° SSW 21:39:44 84° W 21:44:16 10° N
Cosmos 2360 Rocket 2.6 21:40:43 32° SSE 21:42:43 44° ESE 21:48:03 10° NE
Cosmos 1937 Rocket 4.3 21:42:39 29° SE 21:43:51 33° E 21:48:31 10° NE
Cosmos 1726 3.1 21:41:09 10° N 21:44:32 33° ENE 21:45:09 31° E
Cosmos 2263 Rocket 3.5 21:41:19 10° NW 21:46:06 30° WSW 21:49:11 18° SSW
ALOS 2 4.2 21:44:37 19° E 21:46:24 24° ENE 21:49:55 10° N
Meteor 1-13 Rocket 4.2 21:44:29 32° SSE 21:47:04 65° E 21:52:34 10° NNE
Cosmos 2266 Rocket 4.2 21:42:10 10° N 21:48:23 61° ENE 21:51:20 31° SE
NOSS 2-1 (C) 3.4 21:46:44 14° WSW 21:49:22 54° NW 21:52:35 10° NNE
Terra 3.0 21:47:57 20° SSW 21:50:33 35° W 21:54:56 10° NNW
Cosmos 1441 Rocket 3.2 21:51:03 42° SSW 21:52:12 73° WNW 21:55:56 10° N
Cosmos 1346 Rocket 4.0 21:50:23 18° SW 21:52:58 39° WNW 21:56:46 10° N
Cosmos 2279 Rocket 4.1 21:53:29 22° SSW 21:57:40 71° W 22:03:53 10° N
NOSS 2-1 (D) 4.0 21:56:58 11° WSW 21:59:52 42° NW 22:03:00 10° NNE
Cosmos 2112 Rocket 4.2 21:54:57 10° NNW 22:00:16 64° ENE 22:02:27 35° SE
USA 215 3.5 21:54:00 10° ENE 22:00:17 47° SE 22:03:42 26° SSW
Cosmos 990 Rocket 3.9 21:57:54 29° SSW 22:00:41 89° ESE 22:05:58 10° NNE
Cosmos 2278 Rocket 4.4 21:57:23 10° N 22:01:19 19° NE 22:05:14 10° E
Cosmos 1680 Rocket 3.5 21:56:01 10° NNW 22:01:21 75° ENE 22:03:26 38° SE
Iridium 2 4.4 21:59:46 10° NNW 22:03:22 45° W 22:04:23 35° SW
Cosmos 1842 4.2 22:03:47 33° E 22:03:58 33° E 22:07:28 10° NNE
Meteor 1-12 Rocket 4.3 22:00:22 10° N 22:06:22 89° E 22:08:53 36° S
Cosmos 1066 Rocket 4.3 22:05:06 28° SSW 22:08:19 76° WNW 22:14:00 10° N
ADEOS Rocket 4.0 22:05:31 20° ESE 22:08:37 34° ENE 22:14:00 10° N
Spot 4 4.0 22:07:13 39° SE 22:08:52 62° ENE 22:13:36 10° N
Cosmos 1818 3.6 22:04:16 10° NW 22:09:45 76° NE 22:12:08 34° SE
Iridium 4 Rocket 3.2 22:07:37 10° N 22:12:13 77° E 22:13:44 44° SSE
Cosmos 1898 Rocket 3.4 22:11:50 37° S 22:14:01 79° ESE 22:19:22 10° NNE
ISS -1.4 22:13:25 10° W 22:14:21 14° WSW 22:14:21 14° WSW
Cosmos 1900 4.3 22:15:19 42° S 22:16:54 65° ESE 22:21:59 10° NE
Okean 1-7 3.0 22:17:25 49° S 22:18:34 88° W 22:22:58 10° N
Iridium 51 4.3 22:21:01 50° WSW 22:21:27 54° W 22:24:56 10° N
Cosmos 2322 Rocket 2.5 22:18:02 18° SW 22:22:09 64° WNW 22:27:46 10° NNE
Okean 3 3.3 22:25:02 58° S 22:25:50 85° E 22:30:06 10° N
Cosmos 1844 Rocket 2.7 22:20:32 10° NNW 22:26:05 65° WSW 22:27:57 41° S
Cosmos 2322 4.3 22:25:29 36° SE 22:26:44 41° ESE 22:32:04 10° NE
Cosmos 2333 Rocket 2.3 22:25:18 41° SSE 22:26:56 55° ESE 22:32:28 10° NE
Cosmos 1805 4.4 22:24:08 10° NNW 22:27:39 33° W 22:28:28 30° WSW
H-2A R/B 3.4 22:27:49 10° NNE 22:31:54 63° ESE 22:32:20 58° SE
Cosmos 1461 3.9 22:28:15 10° NNW 22:32:13 42° NE 22:33:55 28° E
BREEZE-M DEB (TANK) 3.6 22:30:10 10° W 22:31:52 28° WSW 22:31:52 28° WSW
ATLAS 2AS CENTAUR R/B 4.3 22:27:14 10° WSW 22:34:25 39° NNW 22:41:20 10° NE
USA 267 3.5 22:29:46 10° ESE 22:36:15 68° NNE 22:42:46 10° NW
Meteor 1-23 Rocket 4.2 22:34:01 38° SSW 22:36:25 87° W 22:42:18 10° N
ATLAS CENTAUR R/B 1.6 22:31:46 10° NW 22:36:41 87° SW 22:37:50 52° SSE
Cosmos 1766 3.9 22:39:09 10° NNW 22:42:53 42° W 22:43:23 40° WSW
Cosmos 2219 Rocket 2.3 22:44:47 44° SSE 22:46:17 60° ESE 22:51:47 10° NNE
Cosmos 1703 Rocket 4.3 22:48:16 34° WSW 22:49:41 46° WNW 22:53:57 10° N
Cosmos 1844 4.1 22:44:08 10° NW 22:49:45 52° WSW 22:51:27 39° SSW
Cosmos 2221 Rocket 4.4 22:51:06 34° ESE 22:51:38 36° E 22:55:40 10° NNE
Cosmos 372 Rocket 3.9 22:51:17 46° SSW 22:52:50 88° ESE 22:58:03 10° NNE
ATLAS 3B R/B 4.0 22:51:55 10° NW 22:58:08 30° WSW 23:00:38 25° SW
Cosmos 1707 2.6 23:00:36 74° ESE 23:00:44 75° E 23:04:37 10° NNE
SL-16 R/B 4.0 22:57:15 10° WSW 23:02:05 28° NW 23:06:57 10° N
NOSS 3-1 (A) 4.2 22:54:54 10° NW 23:02:15 75° NE 23:08:57 19° SE
Cosmos 1782 Rocket 4.2 23:00:01 10° NNW 23:04:07 41° W 23:04:50 38° WSW
ERS-2 2.1 23:03:09 10° N 23:06:46 71° WNW 23:06:52 71° W
Okean 2 3.5 23:06:39 56° ESE 23:06:56 57° E 23:10:57 10° NNE
CZ-4C R/B 3.0 23:01:40 10° NW 23:08:53 88° NE 23:14:17 25° SE
NOSS 3-1 (C) 4.1 23:02:07 10° NW 23:09:34 73° SW 23:14:03 32° SSE
USA 290 3.4 23:10:46 36° ENE 23:10:46 36° ENE 23:13:03 10° NE
Cosmos 1238 Rocket 3.3 23:09:33 10° N 23:11:57 38° NE 23:11:57 38° NE
Gblst 52 Del rocket 4.4 23:09:05 10° WSW 23:15:26 74° NNW 23:21:08 10° ENE
Cosmos 2237 Rocket 3.3 23:14:56 26° SE 23:16:06 28° ESE 23:20:53 10° NE
KORONAS-FOTON 3.7 23:16:49 70° ESE 23:16:51 70° E 23:20:39 10° NNE
Cosmos 1470 3.4 23:15:16 10° NNW 23:18:55 41° W 23:19:01 41° W
Cosmos 1726 4.1 23:16:45 10° NW 23:19:16 18° W 23:19:26 18° W
COSMOS 2428 2.6 23:17:53 45° S 23:19:40 77° ESE 23:25:22 10° NNE
Cosmos 1300 Rocket 3.8 23:16:04 10° NNW 23:20:18 52° W 23:20:51 48° WSW
Cosmos 1745 Rocket 4.3 23:16:06 10° N 23:22:16 58° ENE 23:25:01 32° SE
ALOS 2 3.3 23:22:00 38° WSW 23:22:31 39° W 23:26:40 10° NNW
PSLV R/B 3.7 23:18:38 10° NNE 23:23:00 61° E 23:23:41 53° SE
Cosmos 2151 Rocket 3.5 23:18:47 10° N 23:23:12 77° E 23:23:57 60° SSE
USA 305 3.9 23:26:44 31° ESE 23:26:44 31° ESE 23:29:32 10° ENE
Cosmos 1242 Rocket 2.6 23:22:42 10° NNW 23:26:07 68° WNW 23:26:07 68° WNW
Cosmos 2360 Rocket 3.5 23:22:25 13° WSW 23:26:49 35° NW 23:32:00 10° NNE
Okean 2 Rocket 3.0 23:22:45 10° N 23:27:18 85° W 23:28:05 61° S
Cosmos 405 Rocket 3.1 23:28:20 49° E 23:28:20 49° E 23:32:00 10° NNE
Cosmos 1943 Rocket 4.3 23:25:37 10° N 23:30:09 24° NE 23:34:40 10° E
In-Cosmos 22 4.2 23:29:31 44° SSW 23:31:22 77° WNW 23:36:52 10° N
Cosmos 1437 Rocket 3.1 23:29:31 10° N 23:33:12 50° ENE 23:33:33 48° E
Nimbus 7 Rocket 4.3 23:28:12 10° NNE 23:34:07 81° ESE 23:36:12 42° S
Cosmos 1908 3.0 23:30:54 10° N 23:34:42 89° E 23:34:48 85° SSE
Cosmos 1867 3.5 23:33:44 42° SW 23:35:40 89° NW 23:41:12 10° NE
Cosmos 2298 Rocket 4.3 23:34:33 43° SSE 23:35:48 53° ESE 23:40:58 10° NNE
Meteor 1-21 4.4 23:34:35 39° SW 23:36:46 67° WNW 23:42:34 10° N
Cosmos 1626 2.0 23:37:36 83° W 23:37:36 83° W 23:41:17 10° N
SL-08 R/B 4.5 23:32:46 10° NNW 23:39:03 75° W 23:41:27 40° S
USA 215 3.5 23:36:59 10° NE 23:43:29 67° NNW 23:49:58 10° WSW
Cosmos 1953 2.5 23:40:12 10° N 23:44:12 63° E 23:44:46 55° ESE
Cosmos 2278 Rocket 2.2 23:40:37 10° NNW 23:46:20 82° ENE 23:48:51 35° SSE
Cosmos 468 4.4 23:42:20 10° NNW 23:47:34 78° WSW 23:49:03 48° S
Cosmos 1674 3.1 23:50:45 46° W 23:50:59 47° WNW 23:54:38 10° N
Sich 1 Rocket 4.4 23:49:25 10° NNW 23:53:27 36° W 23:54:00 34° WSW
ADEOS Rocket 3.5 23:52:27 33° SW 23:54:04 41° W 23:59:41 10° NNW
